Weather History for Greensboro, NC

Change the Weather History Date:

Tuesday, April 2, 2013

  Actual Average Record
Temperature  
Mean Temperature 48 °F 55 °F  
Max Temperature 59 °F 66 °F 87 °F (1967)
Min Temperature 37 °F 44 °F 24 °F (1923)
Degree Days  
Heating Degree Days 17 11  
Month to date heating degree days 24 22  
Since 1 July heating degree days 3369 3347  
Cooling Degree Days 0 1  
Month to date cooling degree days 0 1  
Year to date cooling degree days 0 6  
Moisture  
Dew Point 22 °F    
Average Humidity 42    
Maximum Humidity 64    
Minimum Humidity 19    
Precipitation  
Precipitation 0.00 in 0.12 in 2.15 in (1936)
Month to date precipitation T 0.25  
Year to date precipitation 11.52 10.00  
Snow  
Snow 0.00 in 0.00 in 0.00 in ()
Month to date snowfall 0.0 0.0  
Since 1 July snowfall 3.6 7.5  
Snow Depth 0.00 in    
Sea Level Pressure  
Sea Level Pressure 30.08 in    
Wind  
Wind Speed 7 mph (NNW)    
Max Wind Speed 20 mph    
Max Gust Speed 24 mph    
Visibility 10 miles    
Events      
T = Trace of Precipitation, MM = Missing Value Source: NWS Daily Summary

Daily Weather History Graph

Daily Weather History Graph

Search for Another Location

Airport:

Trip Planner

Search our weather history database for the weather conditions in past years. The results will help you decide how hot, cold, wet, or windy it might be!

Date:

Astronomy

Apr. 02, 2013 Rise Set
Actual Time 7:04 AM EDT 7:42 PM EDT
Civil Twilight 6:38 AM EDT 8:08 PM EDT
Nautical Twilight 6:07 AM EDT 8:39 PM EDT
Astronomical Twilight 5:36 AM EDT 9:10 PM EDT
Moon 1:38 AM EDT (4/2) 12:00 PM EDT (4/2)
Length of Visible Light 13h 30m
Length of Day
12h 38m
Waning Gibbous, 56% of the Moon is Illuminated
Apr 2
Waning Gibbous
Apr 3
Last Quarter
Apr 10
New
Apr 18
First Quarter
Apr 25
Full

Hourly Weather History & Observations

Time (EDT) Temp. Windchill Dew Point Humidity Pressure Visibility Wind Dir Wind Speed Gust Speed Precip Events Conditions
12:54 AM 45.0 °F 41.8 °F 32.0 °F 60% 29.99 in 10.0 mi NNE 5.8 mph - N/A   Clear
1:54 AM 44.1 °F 41.5 °F 30.9 °F 60% 30.01 in 10.0 mi North 4.6 mph - N/A   Clear
2:54 AM 43.0 °F 37.7 °F 28.9 °F 58% 30.00 in 10.0 mi NNE 9.2 mph - N/A   Clear
3:54 AM 42.1 °F 40.2 °F 27.0 °F 55% 30.01 in 10.0 mi NNE 3.5 mph - N/A   Clear
4:54 AM 39.9 °F - 27.0 °F 60% 30.04 in 10.0 mi Calm Calm - N/A   Clear
5:54 AM 39.0 °F - 27.0 °F 62% 30.06 in 10.0 mi Calm Calm - N/A   Clear
6:54 AM 37.9 °F - 27.0 °F 65% 30.09 in 10.0 mi Calm Calm - N/A   Clear
7:54 AM 41.0 °F 39.0 °F 26.1 °F 55% 30.13 in 10.0 mi North 3.5 mph - N/A   Clear
8:54 AM 44.1 °F 40.1 °F 26.1 °F 49% 30.14 in 10.0 mi North 6.9 mph - N/A   Clear
9:54 AM 46.0 °F 43.9 °F 25.0 °F 44% 30.14 in 10.0 mi NNE 4.6 mph - N/A   Clear
10:54 AM 48.9 °F - 24.1 °F 38% 30.14 in 10.0 mi North 5.8 mph - N/A   Partly Cloudy
11:54 AM 50.0 °F - 24.1 °F 36% 30.15 in 10.0 mi Variable 3.5 mph - N/A   Partly Cloudy
12:54 PM 54.0 °F - 19.9 °F 26% 30.12 in 10.0 mi NW 13.8 mph 23.0 mph N/A   Partly Cloudy
1:54 PM 55.0 °F - 18.0 °F 23% 30.10 in 10.0 mi WNW 11.5 mph 23.0 mph N/A   Partly Cloudy
2:54 PM 55.9 °F - 16.0 °F 21% 30.07 in 10.0 mi WNW 11.5 mph 21.9 mph N/A   Partly Cloudy
3:54 PM 57.9 °F - 16.0 °F 19% 30.05 in 10.0 mi WNW 18.4 mph 21.9 mph N/A   Partly Cloudy
4:54 PM 57.9 °F - 15.1 °F 19% 30.05 in 10.0 mi WSW 15.0 mph - N/A   Clear
5:54 PM 57.9 °F - 15.1 °F 19% 30.05 in 10.0 mi WNW 12.7 mph 17.3 mph N/A   Clear
6:54 PM 55.9 °F - 14.0 °F 19% 30.05 in 10.0 mi NW 8.1 mph - N/A   Clear
7:54 PM 55.0 °F - 15.1 °F 21% 30.07 in 10.0 mi NNW 4.6 mph - N/A   Clear
8:54 PM 53.1 °F - 15.1 °F 22% 30.08 in 10.0 mi North 3.5 mph - N/A   Clear
9:54 PM 52.0 °F - 14.0 °F 22% 30.11 in 10.0 mi NNW 5.8 mph - N/A   Scattered Clouds
10:54 PM 51.1 °F - 16.0 °F 25% 30.12 in 10.0 mi Calm Calm - N/A   Clear
11:54 PM 48.9 °F - 17.1 °F 28% 30.13 in 10.0 mi NNE 6.9 mph - N/A   Clear